THORAD DELTA 1 DEB, 8308

Orbit data source: Space-Track

THORAD DELTA 1 DEB, 8308 is space debris in SSO originally from a launch on Fri, 15 Nov 1974 UTC launched from the Air Force Western Test Range (AFWTR). Debris objects in space refer to the collection of defunct objects orbiting the Earth. Examples of debris include non-operational satellites, rocket bodies, and fragments generated from explosions, collisions, or faulty payload assembly.

Loading next visibility...
Identifier
8308, 1974-089BR
Orbit
SSO
Country
Flag of USUS
Related business
Manufacturer
Unknown
Mission
Spacecraft
Bus & Motor
Unknown
Mass
Unknown
Launch date (UTC)
1974-11-15 (51 years ago)
Launch vehicle
Unknown
Launch site
Air Force Western Test Range (AFWTR)
Object type
Payload
Rocket body
Debris
Shape & HBR
Unknown shape, 0.3 m
Radar Cross Section
Medium (>0.1 m² and <1 m²)

Expand to show TLE details & history
Last TLE update: 15 hours ago

TLE from 15 hours ago
0 THORAD DELTA 1 DEB
1 08308U 74089BR  25287.62365831 -.00000021  00000-0  15060-3 0  9994
2 08308 101.5329 331.6280 0062382 162.3145 350.0297 12.45571495314476
Epoch: 2025-10-14T14:58Z
TLE epoch observation values (Epoch: 2025-10-14T14:58:04.077Z)
Latitude
27.21108°
Longitude
-90.30581°
Altitude
1,437.811 km
Speed
7.167 km/s
True Right ascension
10h 30m 28s
True Declination
27° 05' 01"
Sunlit
Object was in daylight at epoch
Visualization orbit readout
Latitude
Unknown
Longitude
Unknown
Altitude
Unknown
Speed
Unknown
Apparent Right ascension
Unknown
Apparent Declination
Unknown
Sunlit
N/A
Visualization observer readout
Local Sidereal Time
00:36:23
Azimuth
Unknown
Elevation
Unknown
Doppler factor
Unknown
Orbital elements
Apogee altitude
1,529.637 km
Perigee altitude
1,431.589 km
Semi-major axis
7,858.75 km
Eccentricity
0.00624
Inclination
101.5329°
RAAN
331.628°
Arg. of periapsis
162.3145°
True anomaly
349.90498°
Mean anomaly
350.0297°
Eccentric anomaly
349.96743°
Mean motion
3.11539 °/min
Orbital period
115.56 mins
BSTAR
0.0001506
Loading maneuver chart data...
Computing Atmospheric mass density...

Documentation

Showing up to 5 results
|